www.pogodaiklimat.ru

Погода и климат >> Архив погоды >> Йемен >> Аден


ПОГОДА в Адене

  • Прогноз погоды в Адене
  • Монитор погоды в Адене

АРХИВ ПОГОДЫ в Адене

Время (UTC), дата Ветер
(напр.,м/с)
 
Видим.   Явления Облачность Т
(С)
Тd
(С)
f
(%)
Тe
(С)
Тes
(С)
Комфортность P
(гПа)
Po
(гПа)
Тmin
(С)
Tmax
(С)
R
(мм)
R24
(мм)
S
(см)
21 11.08 С 1 10 км ясно +12.5 +12.1 97 +12 +12 816.5
00 12.08 Ю 2-3
{6}
10 км ясно +30.3 -0.3 14 +27 +27 жарко 995.3 995.0
03 12.08 СЗ 3-4
{5}
10 км ясно +32.5 +4.2 17 +30 +30 жарко 996.0 995.7 11
06 12.08 СЗ 5-6
{8}
10 км 4/0
[Ac trans]
+39.2 +2.5 10 996.7 260
09 12.08 С 5-7
{9}
10 км 3/0
[Ac trans]
+44.5 +9.6 13 +43 +52 опасность
перегрева
995.3 995.0 412
12 12.08 СЗ 3 10 км 3/0
[Ac trans]
+47.0 +8.1 10 +45 +53 опасность
перегрева
993.7 993.4 329
15 12.08 ЮВ 2-4 10 км 3/0
[Ac trans]
+45.2 +9.4 12 +43 +44 опасность
перегрева
993.1 992.8 55
18 12.08 Ю 4-5 8000 м мгла 3/0
[Ac trans]
+39.2 +9.7 17 +38 +38 очень
жарко
994.9 994.6
21 12.08 С 1 10 км ясно +13.5 +13.1 97 +14 +14 816.1
12 13.08 В 5 10 км 6/0
[Ac trans]
+43.8 +11.8 15 +43 +47 опасность
перегрева
997.0 996.7 238
15 13.08 З 36 40 км 4/4 1000 м
[]
+25.1 +18.1 65 +29 +29 душно 815.5
18 13.08 Ю 3-3 10 км 6/0
[Ac trans]
+37.5 +16.5 29 +40 +40 очень
душно
998.7 998.4
21 13.08 З 46 40 км 4/4 1000 м
[]
+13.0 +12.6 97 0 0 817.0
00 14.08 Ю 2-4
{4}
8000 м мгла 4/0
[Ac trans]
+31.0 +17.6 45 998.3
03 14.08 С 2 10 км ясно +10.6 +10.2 97 +9 +10 1000.8
06 14.08 С 5-8
{9}
10 км 8/0
[Ac trans]
+40.3 +7.4 14 +38 +41 очень
жарко
1000.7 1000.4 205
09 14.08 СЗ 4 10 км 8/0
[Ac trans]
+44.4 +7.1 11 +42 +52 опасность
перегрева
1000.1 999.8 327
15 14.08 ЮВ 3-5
{7}
10 км мгла 8/0
[Ac trans Ci fib]
+43.3 +11.1 15 +42 +42 опасность
перегрева
998.3 998.0 38
18 14.08 Ю 3-4
{7}
10 км 5/0
[Ac trans]
+38.6 +12.3 21 +38 +38 очень
жарко
999.8 999.5
21 14.08 Ю 2-2
{5}
10 км 4/0
[Ac trans]
+35.0 +12.5 26 999.6 +31.0 +48.0
03 15.08 С 1 10 км ясно +11.8 +11.0 95 +12 +12 1000.9
06 15.08 С 8-12 10 км 3/0
[Ci fib]
+41.0 +6.2 12 +38 +40 очень
жарко
1001.8 1001.5 259
12 15.08 С 6-11
{14}
10 км 6/0
[Ac trans]
+48.0 +7.3 9 +46 +48 опасность
перегрева
999.4 999.1 340
21 15.08 С 1 10 км 3/0
[Ac trans]
+18.0 +17.7 98 +20 +20 814.6
00 16.08 СЗ 6-8
{11}
10 км 5/0
[Ac trans]
+38.0 +3.3 12 +35 +35 очень
жарко
1001.4 1001.1
03 16.08 С 1 10 км 4/0
[Ac lent]
+14.7 +14.2 97 +16 +16 1001.2
06 16.08 С 9-12
{15}
10 км 5/0 2000 м
[Ac trans]
+39.8 +5.1 12 +37 +38 очень
жарко
1002.7 1002.4 245
09 16.08 С 9-11
{14}
10 км 4/0 2000 м
[Ac trans]
+44.7 +4.4 9 1001.9 334
12 16.08 Ю 1 10 км 3/1 600 м
[Cu hum Ci]
+31.9 +19.7 48 +38 +50 очень
душно
812.3
15 16.08 С 7-10
{13}
10 км 3/0
[Ci fib]
+44.2 +3.2 8 +41 +41 опасность
перегрева
999.1 998.8 65
18 16.08 СЗ 5-9
{13}
10 км ясно +40.2 -0.4 8 +36 +36 очень
жарко
1000.5 1000.2
21 16.08 штиль 0 10 км 8/8 600 м
[]
+18.0 +17.7 98 +18 +18 811.6
03 17.08 0 н/о +14.8 +14.4 97 +14 +15 1001.2
06 17.08 0-10
{11}
н/о +38.2 +6.3 14 1001.0 282
09 17.08 0 н/о +27.1 +22.4 76 +36 +66 опасность
солнечного
удара
811.5
12 17.08 0 н/о +44.0 +4.0 9 998.3 351
15 17.08 0 н/о +41.9 +5.3 11 998.1 61
18 17.08 0-9 н/о +39.3 +2.1 10 999.3
21 17.08 0-2
{9}
н/о +31.2 +0.8 14 999.7 +29.8 +44.7
00 18.08 З 3-3
{9}
5000 м мгла ясно +27.3 +1.0 18 +25 +25 комфорт 999.7 999.4
09 18.08 СЗ 4 10 км ясно +42.3 +7.2 12 +40 +54 опасность
солнечного
удара
1001.2 1000.9 410
12 18.08 СЗ 2-7 10 км ясно +43.7 +7.6 12 +42 +53 опасность
перегрева
1000.1 999.8 338

 

Местоположение метеостанции Аден (Йемен): широта 12.83 долгота 45.03 высота над уровнем моря 3 м.

В архиве по умолчанию представлена погода в Адене за последнюю неделю. Архивные данные за месяц целиком и за предыдущие месяцы, начиная с января 2011 года, Вы можете получить, выбрав интересующий диапазон дат из раскрывающегося списка и нажав кнопку "Ввод!".


*Определитесь, кто Вы:
робот инопланетянин человек

Внимание! Время в таблицах - всемирное. Для получения местного времени необходимо прибавить поправку, которая равна 3 ч.

Смотрите также архив погоды в соседних городах и на ближайших метеорологических станциях:

Погода в Таизе (Йемен) (136 км)
Погода в Дамаре (Йемен) (206 км)
Погода в Джибути () (249 км)
Погода в Марибе (Йемен) (291 км)
Погода в Ходейде (Йемен) (308 км)
Погода в Сане (Йемен) (313 км)
Погода в Хадже (Йемен) (368 км)
Погода в Харгейсе (Сомали) (385 км)
Погода в Босасо (Сомали) (483 км)
Погода в Рийяне (Йемен) (496 км)

Пояснения к столбцам:

Ветер - указаны скорость ветра в м/с - средняя за 10 мин, порывы в срок и между сроками (в фигурных скобках) и направление, откуда дует ветер: С - северный, СВ - северо-восточный, В - восточный, ЮВ - юго-восточный, Ю - южный, ЮЗ - юго-западный, З - западный, СЗ - северо-западный.
Видимость - горизонтальная дальность видимости в метрах или километрах. При видимости от 1 до 10 км при отсутствии осадков обычно наблюдается дымка, при ухудшении видимости до 1 км и менее - туман. В сухую погоду видимость может ухудшаться дымом, пылью или мглою.
Явления - указаны атмосферные явления, наблюдавшиеся в срок или в последний час перед сроком; фигурными скобками обозначены явления, наблюдавшиеся между сроками (за 1-3 часа до срока); квадратными скобками обозначены град или гололедные отложения с указанием их диаметра в мм.
Облачность - указаны через наклонную черту общая и нижняя облачность в баллах и высота нижней границы облаков в метрах; квадратными скобками обозначены формы облаков: Ci - перистые, Cs - перисто-слоистые, Cc - перисто-кучевые, Ac - высококучевые, As - высокослоистые, Sc - слоисто-кучевые, Ns - слоисто-дождевые, Cu - кучевые, Cb - кучево-дождевые. Подробнее классификацию облаков см. в Атласе облаков (PDF).
T - Температура воздуха - температура, измеренная на высоте 2 м над землей.
Td - Температура точки росы - температура, при понижении до которой содержащийся в воздухе водяной пар достигнет насыщения.
f - Относительная влажность воздуха - влажноcть воздуха, измеренная на высоте 2 м над землей.
Te - Эффективная температура - температура, которую ощущает одетый по сезону человек в тени. Характеристика душности погоды. При расчете учитывается влияние влажности воздуха и скорости ветра на теплоощущения человека.
Tes - Эффективная температура на солнце - температура, которую ощущает человек, с поправкой на солнечный нагрев. Характеристика знойности погоды. Зависит от высоты солнца над горизонтом, облачности и скорости ветра. Ночью, в пасмурную погоду, а также при ветре 12 м/с и более поправка равна нулю.
P - Атмосферное давление - приведенное к уровню моря атмосферное давление.
Po - Атмосферное давление - измеренное на уровне метеостанции атмосферное давление.
Tmin - Минимальная температура - минимум температуры воздуха на высоте 2 м над землей.
Tmax - Максимальная температура - максимум температуры воздуха на высоте 2 м над землей.
R - Количество осадков - Количество выпавших осадков за период времени, мм. При наведении курсора мыши на число - период времени, за который выпало указанное количество осадков.
R24 - Количество осадков - Количество выпавших осадков за 24 часа, мм.
S - Снежный покров - Высота снежного покрова, см. При наведении курсора мыши на число - состояние снежного покрова и степень покрытия местности в баллах.